Change the Weather History Date:

Saturday, July 20, 2013

  Actual Average Record
Temperature  
Mean Temperature 74 °F 71 °F  
Max Temperature 82 °F 81 °F 99 °F (1894)
Min Temperature 66 °F 61 °F 46 °F (1965)
Degree Days  
Heating Degree Days 0 0  
Month to date heating degree days 0 6  
Since 1 June heating degree days 58 74  
Since 1 July heating degree days 0 6  
Cooling Degree Days 9 6  
Month to date cooling degree days 228 120  
Year to date cooling degree days 406 256  
Since 1 June cooling degree days 335 226  
Growing Degree Days 25 (Base 50)    
Moisture  
Dew Point 65 °F    
Average Humidity 70    
Maximum Humidity 97    
Minimum Humidity 42    
Precipitation  
Precipitation 0.45 in 0.10 in 2.24 in (1981)
Month to date precipitation 4.26 2.09  
Year to date precipitation 22.36 17.89  
Snow  
Snow 0.00 in 0.00 in 0.00 in ()
Month to date snowfall 0.0 0.0  
Since 1 June snowfall 0.0 0.0  
Since 1 July snowfall 0.0 0.0  
Snow Depth 0.00 in    
Sea Level Pressure  
Sea Level Pressure 29.79 in    
Wind  
Wind Speed 7 mph (WSW)    
Max Wind Speed 18 mph    
Max Gust Speed 24 mph    
Visibility 10 miles    
Events Rain , Thunderstorm    
T = Trace of Precipitation, MM = Missing Value Source: NWS Daily Summary

Daily Weather History Graph

Daily Weather History Graph

Search for Another Location

Airport or City:

Trip Planner

Search our weather history database for the weather conditions in past years. The results will help you decide how hot, cold, wet, or windy it might be!

Date:

Astronomy

Jul. 20, 2013 Rise Set
Actual Time 5:49 AM EDT 8:44 PM EDT
Civil Twilight 5:15 AM EDT 9:17 PM EDT
Nautical Twilight 4:33 AM EDT 10:00 PM EDT
Astronomical Twilight 3:42 AM EDT 10:50 PM EDT
Moon 6:45 PM EDT (7/20) 3:27 AM EDT (7/20)
Length of Visible Light 16h 01m
Length of Day
14h 54m
Waxing Gibbous, 93% of the Moon is Illuminated
Jul 20
Waxing Gibbous
Jul 22
Full
Jul 29
Last Quarter
Aug 6
New
Aug 14
First Quarter

Hourly Weather History & Observations

Time (EDT) Temp. Heat Index Dew Point Humidity Pressure Visibility Wind Dir Wind Speed Gust Speed Precip Events Conditions
12:54 AM 70.0 °F - 66.9 °F 90% 29.78 in 7.0 mi SSW 13.8 mph - 0.15 in Rain , Thunderstorm Heavy Thunderstorms and Rain
1:54 AM 70.0 °F - 66.9 °F 90% 29.79 in 8.0 mi WSW 12.7 mph 20.7 mph 0.28 in Rain , Thunderstorm Thunderstorms and Rain
2:54 AM 70.0 °F - 68.0 °F 93% 29.77 in 10.0 mi SSW 4.6 mph - 0.16 in Rain , Thunderstorm Light Thunderstorms and Rain
3:54 AM 71.1 °F - 68.0 °F 90% 29.76 in 10.0 mi South 4.6 mph - 0.06 in Rain , Thunderstorm Light Thunderstorms and Rain
4:43 AM 69.8 °F - 68.0 °F 94% 29.75 in 10.0 mi SSW 9.2 mph - 0.01 in   Mostly Cloudy
4:54 AM 70.0 °F - 68.0 °F 93% 29.75 in 10.0 mi South 12.7 mph - 0.01 in   Mostly Cloudy
5:54 AM 71.1 °F - 68.0 °F 90% 29.73 in 10.0 mi SW 9.2 mph - 0.00 in   Overcast
6:54 AM 71.1 °F - 66.9 °F 87% 29.71 in 10.0 mi WSW 5.8 mph - N/A   Overcast
7:54 AM 72.0 °F - 66.9 °F 84% 29.74 in 10.0 mi WSW 10.4 mph - N/A   Overcast
8:54 AM 73.0 °F - 66.9 °F 81% 29.75 in 10.0 mi WSW 11.5 mph 19.6 mph N/A   Overcast
9:54 AM 75.0 °F - 68.0 °F 79% 29.76 in 10.0 mi West 12.7 mph - N/A   Overcast
10:54 AM 75.0 °F - 68.0 °F 79% 29.77 in 10.0 mi West 13.8 mph 19.6 mph N/A   Overcast
11:54 AM 72.0 °F - 64.9 °F 78% 29.79 in 10.0 mi NW 6.9 mph - 0.00 in Rain Light Rain
12:17 PM 75.2 °F - 64.4 °F 69% 29.78 in 10.0 mi NW 4.6 mph - N/A   Mostly Cloudy
12:54 PM 72.0 °F - 64.0 °F 76% 29.80 in 10.0 mi SW 12.7 mph - N/A   Mostly Cloudy
1:54 PM 71.1 °F - 64.0 °F 78% 29.80 in 10.0 mi SW 8.1 mph - 0.00 in   Mostly Cloudy
2:54 PM 75.9 °F - 64.9 °F 69% 29.80 in 10.0 mi SSW 5.8 mph - N/A   Mostly Cloudy
3:54 PM 77.0 °F - 66.9 °F 71% 29.81 in 10.0 mi South 8.1 mph - N/A   Mostly Cloudy
4:54 PM 81.0 °F 83.3 °F 66.9 °F 62% 29.81 in 10.0 mi Calm Calm - N/A   Mostly Cloudy
5:54 PM 80.1 °F 80.2 °F 55.9 °F 43% 29.81 in 10.0 mi West 5.8 mph - N/A   Mostly Cloudy
6:54 PM 80.1 °F 80.4 °F 57.0 °F 45% 29.81 in 10.0 mi West 3.5 mph - N/A   Mostly Cloudy
7:54 PM 78.1 °F - 60.1 °F 54% 29.82 in 10.0 mi Calm Calm - N/A   Scattered Clouds
8:54 PM 73.9 °F - 64.9 °F 73% 29.84 in 10.0 mi Calm Calm - N/A   Mostly Cloudy
9:54 PM 71.1 °F - 64.0 °F 78% 29.86 in 10.0 mi Calm Calm - N/A   Mostly Cloudy
10:54 PM 73.0 °F - 63.0 °F 71% 29.88 in 10.0 mi North 8.1 mph - 0.00 in   Mostly Cloudy
11:54 PM 70.0 °F - 62.1 °F 76% 29.90 in 10.0 mi NNW 3.5 mph - N/A   Scattered Clouds